﻿#観測日時,平均風速,平均風向,最大風速,最大風速発生風向,最大瞬間風速,最大瞬間風速発生風向
#(年月日),(m/s)   ,(16方位),(m/s)   ,(16方位)        ,(m/s)       ,(16方位)            
2020/2/27 0:01,3.8,15,3.8,15,8.2,14
2020/2/27 0:02,3.9,15,3.9,15,7.6,13
2020/2/27 0:03,3.7,14,3.9,15,5,10
2020/2/27 0:04,3.5,14,3.7,15,3.5,8
2020/2/27 0:05,3.4,14,3.5,15,4.3,15
2020/2/27 0:06,3.2,14,3.4,15,4.4,13
2020/2/27 0:07,3.1,13,3.2,15,4.2,1
2020/2/27 0:08,3.1,13,3.1,15,9,15
2020/2/27 0:09,3,13,3,15,5,15
2020/2/27 0:10,3.2,14,3.2,15,7,16
2020/2/27 0:11,3,14,3.1,15,6.4,15
2020/2/27 0:12,3,14,3,15,6.1,15
2020/2/27 0:13,2.8,14,2.9,14,3.2,1
2020/2/27 0:14,2.8,15,2.8,14,3.5,15
2020/2/27 0:15,2.9,15,2.9,14,5,15
2020/2/27 0:16,2.8,15,2.9,13,3.6,16
2020/2/27 0:17,2.9,15,2.9,14,4.2,15
2020/2/27 0:18,2.8,15,2.9,14,7.1,14
2020/2/27 0:19,2.9,15,2.9,14,5.6,16
2020/2/27 0:20,2.8,15,2.9,13,7.2,16
2020/2/27 0:21,2.9,15,2.9,14,7.1,16
2020/2/27 0:22,3.1,15,3.1,15,7.9,16
2020/2/27 0:23,3.3,15,3.3,15,7.5,15
2020/2/27 0:24,3.4,15,3.4,15,6.7,14
2020/2/27 0:25,3.8,15,3.8,15,11.8,14
2020/2/27 0:26,4,15,4,15,9.3,1
2020/2/27 0:27,4.2,15,4.2,15,6.9,14
2020/2/27 0:28,4.3,15,4.4,15,7.5,16
2020/2/27 0:29,4.3,15,4.4,15,5.8,13
2020/2/27 0:30,4.3,15,4.3,15,5.8,15
2020/2/27 0:31,4.3,15,4.4,15,6,16
2020/2/27 0:32,4.3,15,4.3,15,8.6,15
2020/2/27 0:33,4.4,15,4.4,15,6.9,1
2020/2/27 0:34,4.5,15,4.5,15,7.6,14
2020/2/27 0:35,4.3,15,4.5,15,6.8,15
2020/2/27 0:36,4.3,15,4.3,15,7.4,16
2020/2/27 0:37,4.2,15,4.3,15,6.9,16
2020/2/27 0:38,4.1,15,4.2,15,7,14
2020/2/27 0:39,4.2,15,4.2,15,8.2,16
2020/2/27 0:40,4.2,15,4.3,15,7.2,16
2020/2/27 0:41,4.1,15,4.2,15,4.8,15
2020/2/27 0:42,4.2,15,4.3,15,8.5,16
2020/2/27 0:43,4.1,15,4.2,15,6.5,16
2020/2/27 0:44,4.2,15,4.2,15,10.5,15
2020/2/27 0:45,4.2,15,4.3,15,7.1,16
2020/2/27 0:46,4.1,15,4.2,15,6.9,16
2020/2/27 0:47,4.2,15,4.2,15,6.8,15
2020/2/27 0:48,4.4,16,4.4,15,8.4,15
2020/2/27 0:49,4.5,15,4.6,15,9.5,15
2020/2/27 0:50,4.5,15,4.5,15,7.2,16
2020/2/27 0:51,4.5,15,4.6,15,6.8,15
2020/2/27 0:52,4.2,15,4.5,15,4.4,15
2020/2/27 0:53,4.1,15,4.2,15,3.8,16
2020/2/27 0:54,3.8,15,4.1,15,4.2,14
2020/2/27 0:55,3.6,15,3.8,15,5.1,15
2020/2/27 0:56,3.7,15,3.7,15,5.1,15
2020/2/27 0:57,3.6,15,3.7,15,4.3,14
2020/2/27 0:58,3.1,15,3.5,15,2.5,16
2020/2/27 0:59,2.7,15,3.1,15,3.5,16
2020/2/27 1:00,2.6,15,2.7,15,6.1,15
2020/2/27 1:01,2.6,15,2.6,15,6.7,15
2020/2/27 1:02,2.8,15,2.8,15,7.8,15
2020/2/27 1:03,3.1,15,3.1,15,6.8,15
2020/2/27 1:04,3.2,15,3.2,15,5,16
2020/2/27 1:05,3.1,14,3.2,15,4.9,14
2020/2/27 1:06,3.1,14,3.1,15,6.3,16
2020/2/27 1:07,3.3,15,3.3,15,6.4,1
2020/2/27 1:08,3.6,15,3.6,15,6.7,15
2020/2/27 1:09,3.9,15,3.9,15,7.9,15
2020/2/27 1:10,4.1,15,4.1,15,6.7,16
2020/2/27 1:11,4,15,4.1,15,4.4,16
2020/2/27 1:12,3.8,15,4,15,3.9,16
2020/2/27 1:13,3.5,15,3.7,15,4.2,15
2020/2/27 1:14,3.7,16,3.7,15,7.5,16
2020/2/27 1:15,3.9,16,3.9,15,7.2,16
2020/2/27 1:16,4.1,16,4.1,15,8.6,16
2020/2/27 1:17,4.1,16,4.1,15,7.5,1
2020/2/27 1:18,4.2,16,4.2,16,7.8,15
2020/2/27 1:19,4,16,4.2,16,5,16
2020/2/27 1:20,3.8,16,4,16,4.9,16
2020/2/27 1:21,3.9,16,3.9,16,5.7,15
2020/2/27 1:22,3.9,16,3.9,16,5,16
2020/2/27 1:23,4,15,4,16,5,14
2020/2/27 1:24,3.7,15,4,16,3.3,1
2020/2/27 1:25,3.4,15,3.7,16,3.3,16
2020/2/27 1:26,3.2,15,3.4,16,4.4,15
2020/2/27 1:27,3.1,15,3.2,16,5.6,15
2020/2/27 1:28,3.1,15,3.2,16,10.1,16
2020/2/27 1:29,3.2,15,3.2,16,7.2,14
2020/2/27 1:30,3.3,15,3.3,16,6.8,14
2020/2/27 1:31,3.3,15,3.3,16,4.8,15
2020/2/27 1:32,3.2,15,3.3,16,5.4,16
2020/2/27 1:33,3.2,15,3.2,15,5.2,1
2020/2/27 1:34,3.4,15,3.4,15,5.6,15
2020/2/27 1:35,3.7,15,3.7,15,6.8,16
2020/2/27 1:36,3.8,15,3.9,15,7.5,16
2020/2/27 1:37,3.8,15,3.8,15,8.5,15
2020/2/27 1:38,4,15,4,15,11.4,16
2020/2/27 1:39,4.1,16,4.1,15,7,16
2020/2/27 1:40,4.1,16,4.1,15,6.8,16
2020/2/27 1:41,4.2,16,4.2,16,9.8,15
2020/2/27 1:42,4.3,16,4.3,16,8.7,16
2020/2/27 1:43,4.3,16,4.4,16,3.8,16
2020/2/27 1:44,4.4,16,4.4,16,6.9,15
2020/2/27 1:45,4.3,16,4.4,16,6.4,16
2020/2/27 1:46,4.5,16,4.5,16,10.8,15
2020/2/27 1:47,4.7,16,4.7,16,10.1,15
2020/2/27 1:48,4.7,16,4.7,16,10.3,15
2020/2/27 1:49,4.6,16,4.7,16,7.4,15
2020/2/27 1:50,4.8,16,4.8,16,9.7,16
2020/2/27 1:51,4.6,16,4.8,16,7.9,15
2020/2/27 1:52,4.9,16,4.9,16,9.2,16
2020/2/27 1:53,4.9,16,4.9,16,7,16
2020/2/27 1:54,4.9,16,4.9,16,8.3,16
2020/2/27 1:55,5,16,5,16,7.8,16
2020/2/27 1:56,4.7,16,5,16,10.3,16
2020/2/27 1:57,4.4,16,4.6,16,6.7,16
2020/2/27 1:58,4.1,16,4.4,16,5.8,16
2020/2/27 1:59,4.1,16,4.1,16,5.8,15
2020/2/27 2:00,3.8,16,4,16,6.1,15
2020/2/27 2:01,4.1,15,4.1,16,8.2,16
2020/2/27 2:02,4,15,4,16,8.5,16
2020/2/27 2:03,4,15,4,16,6.7,16
2020/2/27 2:04,4.1,15,4.1,16,9.1,16
2020/2/27 2:05,4.1,15,4.1,16,7.5,16
2020/2/27 2:06,4.4,15,4.4,16,10.9,16
2020/2/27 2:07,4.9,15,4.9,15,11.1,16
2020/2/27 2:08,4.9,16,5,16,8.1,15
2020/2/27 2:09,4.8,16,4.9,16,5.8,16
2020/2/27 2:10,5,16,5,16,10.9,16
2020/2/27 2:11,4.8,16,4.9,16,7.6,1
2020/2/27 2:12,4.7,16,4.8,16,7.2,15
2020/2/27 2:13,4.7,16,4.7,16,9.3,15
2020/2/27 2:14,4.7,16,4.8,16,10.3,16
2020/2/27 2:15,4.6,16,4.7,16,5.7,13
2020/2/27 2:16,4.3,15,4.6,16,5.2,13
2020/2/27 2:17,3.8,15,4.2,16,5.7,14
2020/2/27 2:18,3.8,15,3.8,16,5.7,13
2020/2/27 2:19,3.8,15,3.9,16,4.7,14
2020/2/27 2:20,3.5,15,3.8,16,3.2,14
2020/2/27 2:21,3.5,14,3.5,16,4.9,16
2020/2/27 2:22,3.4,15,3.5,16,5.6,15
2020/2/27 2:23,3.4,15,3.5,16,5.8,15
2020/2/27 2:24,3.2,15,3.4,16,5.1,1
2020/2/27 2:25,3.3,15,3.3,16,6.5,15
2020/2/27 2:26,3.2,15,3.3,15,6.1,15
2020/2/27 2:27,3.2,15,3.2,15,4.8,16
2020/2/27 2:28,3,15,3.2,15,5.4,16
2020/2/27 2:29,3.3,16,3.3,15,8.1,16
2020/2/27 2:30,3.6,16,3.6,16,6.1,2
2020/2/27 2:31,3.6,16,3.6,16,6.2,1
2020/2/27 2:32,3.7,16,3.7,16,7,15
2020/2/27 2:33,3.6,16,3.7,16,6.2,16
2020/2/27 2:34,3.9,16,3.9,16,10.2,16
2020/2/27 2:35,3.8,16,3.9,16,6.2,15
2020/2/27 2:36,4,16,4,16,9.3,15
2020/2/27 2:37,4.2,16,4.2,16,8.7,16
2020/2/27 2:38,4.3,16,4.3,16,5.8,15
2020/2/27 2:39,4,16,4.2,16,4.2,16
2020/2/27 2:40,3.7,16,4,16,4.5,16
2020/2/27 2:41,3.6,15,3.7,16,4.7,12
2020/2/27 2:42,3.3,15,3.6,16,4.5,11
2020/2/27 2:43,3.2,15,3.3,16,3,14
2020/2/27 2:44,2.9,15,3.1,16,7.8,15
2020/2/27 2:45,2.9,15,3,16,6.1,15
2020/2/27 2:46,2.8,14,3,16,5.7,16
2020/2/27 2:47,2.8,14,2.9,16,7,14
2020/2/27 2:48,2.8,14,2.8,16,5.8,14
2020/2/27 2:49,2.9,14,2.9,16,5.5,15
2020/2/27 2:50,3,14,3,16,4.8,14
2020/2/27 2:51,3.1,14,3.1,15,7.9,15
2020/2/27 2:52,3.3,15,3.3,15,5.2,15
2020/2/27 2:53,3.3,15,3.3,15,6.1,16
2020/2/27 2:54,3.6,15,3.6,15,9.9,16
2020/2/27 2:55,3.9,15,3.9,15,11.1,15
2020/2/27 2:56,4.2,15,4.2,15,8.5,15
2020/2/27 2:57,4,15,4.1,15,5.5,15
2020/2/27 2:58,3.9,15,4,15,5.7,14
2020/2/27 2:59,3.9,15,4,15,5,16
2020/2/27 3:00,3.8,15,3.9,15,3.7,16
2020/2/27 3:01,3.7,15,3.8,15,3.1,11
2020/2/27 3:02,3.7,15,3.7,15,5.6,14
2020/2/27 3:03,3.7,15,3.7,15,4.5,14
2020/2/27 3:04,3.3,15,3.6,15,4.4,12
2020/2/27 3:05,2.7,14,3.2,15,3.5,13
2020/2/27 3:06,2.7,14,2.7,15,11.3,14
2020/2/27 3:07,2.9,14,2.9,15,7.6,14
2020/2/27 3:08,2.8,14,2.8,15,3.7,15
2020/2/27 3:09,2.8,14,2.9,15,6,14
2020/2/27 3:10,2.8,14,2.9,15,4.9,11
2020/2/27 3:11,2.8,14,2.8,15,5.4,14
2020/2/27 3:12,2.7,14,2.9,15,4.2,14
2020/2/27 3:13,2.6,14,2.6,15,2.7,10
2020/2/27 3:14,2.5,13,2.6,15,2.6,10
2020/2/27 3:15,2.6,14,2.6,14,5.1,16
2020/2/27 3:16,2.3,14,2.6,14,5.6,13
2020/2/27 3:17,2.4,14,2.4,14,7.4,1
2020/2/27 3:18,2.6,14,2.6,14,7.4,15
2020/2/27 3:19,2.8,14,2.8,14,6.9,14
2020/2/27 3:20,3,14,3,14,6.7,16
2020/2/27 3:21,3.2,15,3.2,14,7.4,15
2020/2/27 3:22,3.5,14,3.5,14,9.4,12
2020/2/27 3:23,3.5,14,3.6,14,6,13
2020/2/27 3:24,3.9,15,3.9,15,8.7,16
2020/2/27 3:25,4,15,4,15,7.7,16
2020/2/27 3:26,4.1,15,4.1,15,8.6,15
2020/2/27 3:27,4.1,15,4.2,15,7.6,15
2020/2/27 3:28,4.1,15,4.1,15,7.5,16
2020/2/27 3:29,4,15,4.2,15,8.4,15
2020/2/27 3:30,3.9,15,4,15,4.5,13
2020/2/27 3:31,3.7,14,3.9,15,3.9,14
2020/2/27 3:32,3.5,14,3.7,15,4.2,11
2020/2/27 3:33,3.4,14,3.5,15,2.6,8
2020/2/27 3:34,3.1,14,3.4,15,3.7,8
2020/2/27 3:35,2.9,14,3.1,15,3.7,11
2020/2/27 3:36,2.7,13,2.9,15,4.2,16
2020/2/27 3:37,2.5,13,2.6,15,5.2,16
2020/2/27 3:38,2.3,13,2.5,15,4.3,15
2020/2/27 3:39,2.1,13,2.2,15,4.9,15
2020/2/27 3:40,2.3,13,2.3,15,6.3,16
2020/2/27 3:41,2.5,14,2.5,14,8.7,3
2020/2/27 3:42,2.7,15,2.8,14,10.9,1
2020/2/27 3:43,3.1,15,3.1,14,11.3,15
2020/2/27 3:44,3.6,15,3.6,15,8.6,16
2020/2/27 3:45,4.1,15,4.1,15,12.3,14
2020/2/27 3:46,4.6,15,4.6,15,12.7,15
2020/2/27 3:47,4.8,15,4.8,15,11,15
2020/2/27 3:48,5,15,5,15,8.6,16
2020/2/27 3:49,5,15,5,15,4.9,16
2020/2/27 3:50,5,16,5.1,15,7.9,15
2020/2/27 3:51,5,15,5.1,15,10.7,14
2020/2/27 3:52,5.1,15,5.1,15,10.9,16
2020/2/27 3:53,5.1,15,5.2,15,9.7,15
2020/2/27 3:54,5,15,5.1,15,8.7,15
2020/2/27 3:55,5,15,5,15,11.5,15
2020/2/27 3:56,4.8,15,5.1,15,9.3,1
2020/2/27 3:57,4.8,15,4.8,15,10.1,15
2020/2/27 3:58,4.9,15,4.9,15,11.8,15
2020/2/27 3:59,5.1,15,5.1,15,8.6,15
2020/2/27 4:00,5.3,15,5.3,15,10.5,14
2020/2/27 4:01,5.4,15,5.5,15,13.8,15
2020/2/27 4:02,5.3,16,5.3,15,9.9,16
2020/2/27 4:03,5.6,16,5.6,16,12.4,16
2020/2/27 4:04,5.9,16,5.9,16,14.8,16
2020/2/27 4:05,5.8,16,5.9,16,15.3,16
2020/2/27 4:06,6,16,6,16,11.3,16
2020/2/27 4:07,6.4,16,6.4,16,14.3,16
2020/2/27 4:08,6.7,16,6.7,16,12.8,15
2020/2/27 4:09,6.8,16,6.8,16,11.5,16
2020/2/27 4:10,6.7,16,6.9,16,8.3,16
2020/2/27 4:11,6.5,16,6.7,16,5.8,16
2020/2/27 4:12,6.9,16,6.9,16,14.9,14
2020/2/27 4:13,6.6,16,6.9,16,9.9,16
2020/2/27 4:14,6.4,16,6.6,16,9.4,2
2020/2/27 4:15,6.4,16,6.4,16,10.3,1
2020/2/27 4:16,6.2,16,6.3,16,7.9,1
2020/2/27 4:17,5.9,16,6.2,16,11.7,16
2020/2/27 4:18,5.8,16,5.9,16,10.9,15
2020/2/27 4:19,5.6,16,5.8,16,6.9,16
2020/2/27 4:20,5.7,16,5.7,16,9.4,15
2020/2/27 4:21,5.8,16,5.8,16,9.7,16
2020/2/27 4:22,5.5,16,5.7,16,11.3,15
2020/2/27 4:23,5.8,16,5.8,16,11.8,1
2020/2/27 4:24,5.7,16,5.8,16,13.4,16
2020/2/27 4:25,5.8,16,5.9,16,12.6,15
2020/2/27 4:26,5.9,16,5.9,16,8.4,15
2020/2/27 4:27,5.7,16,5.9,16,8.1,16
2020/2/27 4:28,5.5,16,5.8,16,7.9,16
2020/2/27 4:29,5.6,16,5.6,16,9.1,13
2020/2/27 4:30,5.6,15,5.6,16,8.2,12
2020/2/27 4:31,5.4,15,5.5,16,5.5,13
2020/2/27 4:32,5,15,5.4,16,3.8,2
2020/2/27 4:33,4.6,15,5,16,6,16
2020/2/27 4:34,4.2,15,4.5,16,2.7,9
2020/2/27 4:35,3.6,15,4.2,16,2,6
2020/2/27 4:36,3.2,14,3.5,16,5.1,13
2020/2/27 4:37,3,14,3.2,16,8.1,15
2020/2/27 4:38,3,14,3.1,16,9,15
2020/2/27 4:39,2.7,15,3,16,4.5,15
2020/2/27 4:40,2.6,15,2.7,15,9,1
2020/2/27 4:41,2.7,16,2.7,15,7.7,16
2020/2/27 4:42,3.2,16,3.2,15,10.2,15
2020/2/27 4:43,3.1,16,3.3,15,5.5,16
2020/2/27 4:44,3.5,16,3.5,15,11.3,1
2020/2/27 4:45,4,16,4,16,8.1,15
2020/2/27 4:46,4.4,16,4.4,16,9.1,15
2020/2/27 4:47,4.7,16,4.7,16,12.8,16
2020/2/27 4:48,5.1,16,5.1,16,12.8,15
2020/2/27 4:49,5.3,16,5.3,16,8.3,15
2020/2/27 4:50,5.1,16,5.3,16,3.9,16
2020/2/27 4:51,5,16,5.1,16,6.9,1
2020/2/27 4:52,4.8,16,5,16,7.6,15
2020/2/27 4:53,5.2,16,5.2,16,9.9,15
2020/2/27 4:54,5.4,16,5.4,16,11.4,15
2020/2/27 4:55,5.7,16,5.7,16,12.4,16
2020/2/27 4:56,5.9,16,5.9,16,13.2,15
2020/2/27 4:57,5.6,16,5.8,16,10.1,15
2020/2/27 4:58,5.3,16,5.6,16,9.2,16
2020/2/27 4:59,5.2,16,5.3,16,6.8,16
2020/2/27 5:00,5.2,16,5.2,16,2.7,8
2020/2/27 5:01,5.2,16,5.2,16,7.5,15
2020/2/27 5:02,5.1,16,5.2,16,6.5,14
2020/2/27 5:03,4.7,16,5.1,16,4.7,1
2020/2/27 5:04,4.2,16,4.6,16,4.8,1
2020/2/27 5:05,3.9,16,4.1,16,10.8,16
2020/2/27 5:06,3.6,16,3.9,16,8.1,16
2020/2/27 5:07,3.6,16,3.6,16,11.4,16
2020/2/27 5:08,3.5,16,3.7,16,8.3,16
2020/2/27 5:09,3.5,16,3.5,16,5.8,16
2020/2/27 5:10,3.7,16,3.7,16,7,2
2020/2/27 5:11,3.9,16,3.9,16,9.9,16
2020/2/27 5:12,4,16,4,16,9,15
2020/2/27 5:13,4.4,16,4.4,16,11.6,15
2020/2/27 5:14,4.6,16,4.6,16,10,16
2020/2/27 5:15,4.9,16,4.9,16,13.1,16
2020/2/27 5:16,5.2,16,5.2,16,11.9,1
2020/2/27 5:17,4.9,16,5.2,16,4.9,15
2020/2/27 5:18,4.7,16,4.8,16,3,16
2020/2/27 5:19,4.7,16,4.7,16,5.2,16
2020/2/27 5:20,4.5,16,4.7,16,3.1,15
2020/2/27 5:21,4.2,15,4.4,16,7,15
2020/2/27 5:22,4.1,15,4.2,16,6.8,16
2020/2/27 5:23,3.7,15,4.1,16,7.8,15
2020/2/27 5:24,3.5,15,3.7,16,7.4,14
2020/2/27 5:25,3.3,15,3.6,16,10.6,16
2020/2/27 5:26,3.1,16,3.3,16,6.7,16
2020/2/27 5:27,3.1,16,3.1,16,4.4,16
2020/2/27 5:28,3.3,16,3.3,16,5.7,15
2020/2/27 5:29,3.4,16,3.4,16,9.2,15
2020/2/27 5:30,4.1,16,4.1,16,12.8,16
2020/2/27 5:31,4.6,16,4.6,16,12.7,16
2020/2/27 5:32,5,16,5,16,11.1,1
2020/2/27 5:33,5.3,16,5.3,16,11.8,16
2020/2/27 5:34,5.9,16,5.9,16,13.9,16
2020/2/27 5:35,6,16,6,16,13.9,16
2020/2/27 5:36,6.2,16,6.2,16,10.9,16
2020/2/27 5:37,6.4,15,6.4,15,7.2,15
2020/2/27 5:38,6.5,16,6.5,15,8.4,1
2020/2/27 5:39,6.6,16,6.6,16,7.5,1
2020/2/27 5:40,6.4,16,6.6,16,8.2,16
2020/2/27 5:41,6,16,6.3,16,6.7,16
2020/2/27 5:42,5.6,16,6,16,5.7,16
2020/2/27 5:43,5.7,16,5.7,16,12.2,16
2020/2/27 5:44,5.4,16,5.7,16,9.1,15
2020/2/27 5:45,5,16,5.4,16,7.2,16
2020/2/27 5:46,4.8,16,4.9,16,12.1,15
2020/2/27 5:47,5,16,5,16,10.8,16
2020/2/27 5:48,4.9,16,4.9,16,8.2,16
2020/2/27 5:49,4.7,16,4.9,16,6.4,14
2020/2/27 5:50,4.5,16,4.7,16,9.7,16
2020/2/27 5:51,4.8,16,4.8,16,12.6,1
2020/2/27 5:52,5.1,16,5.1,16,11,16
2020/2/27 5:53,5.1,16,5.3,16,12.6,16
2020/2/27 5:54,4.8,16,5.1,16,5.1,2
2020/2/27 5:55,4.8,16,4.9,16,7,15
2020/2/27 5:56,4.9,16,5,16,9.8,16
2020/2/27 5:57,5,16,5,16,10.1,16
2020/2/27 5:58,5,16,5,16,8.7,15
2020/2/27 5:59,4.9,16,5,16,5.8,15
2020/2/27 6:00,5.1,16,5.2,16,10.3,16
2020/2/27 6:01,4.7,16,5,16,6,2
2020/2/27 6:02,4.4,16,4.7,16,6.7,1
2020/2/27 6:03,4,16,4.4,16,7.7,15
2020/2/27 6:04,4.4,16,4.4,16,8.9,16
2020/2/27 6:05,4.5,16,4.5,16,8.1,15
2020/2/27 6:06,4.4,16,4.6,16,9.8,15
2020/2/27 6:07,4.2,16,4.4,16,5.6,16
2020/2/27 6:08,4,16,4.2,16,4.5,15
2020/2/27 6:09,3.9,16,4,16,6.3,15
2020/2/27 6:10,4.1,16,4.1,16,11.4,15
2020/2/27 6:11,4.2,16,4.2,16,7.6,1
2020/2/27 6:12,4.4,16,4.4,16,7.7,16
2020/2/27 6:13,4.6,16,4.6,16,7.4,1
2020/2/27 6:14,4.4,16,4.6,16,6.8,15
2020/2/27 6:15,4.4,16,4.5,16,11.4,16
2020/2/27 6:16,4.3,16,4.4,16,9.7,16
2020/2/27 6:17,4.5,16,4.5,16,10.3,16
2020/2/27 6:18,4.9,16,4.9,16,10.9,16
2020/2/27 6:19,5.1,16,5.1,16,7.8,14
2020/2/27 6:20,4.7,16,5.1,16,5.8,1
2020/2/27 6:21,4.5,16,4.7,16,7.4,16
2020/2/27 6:22,4.5,16,4.7,16,11.4,16
2020/2/27 6:23,4.6,16,4.6,16,12.4,15
2020/2/27 6:24,4.5,16,4.6,16,8.1,16
2020/2/27 6:25,4.1,16,4.4,16,3.3,16
2020/2/27 6:26,3.9,16,4,16,5.8,1
2020/2/27 6:27,3.7,16,3.9,16,8.1,2
2020/2/27 6:28,3.7,16,3.7,16,9.2,16
2020/2/27 6:29,3.6,16,3.8,16,10.3,16
2020/2/27 6:30,3.9,16,3.9,16,10,16
2020/2/27 6:31,4.1,16,4.1,16,11.6,16
2020/2/27 6:32,3.8,16,4.1,16,3.6,16
2020/2/27 6:33,3.6,16,3.7,16,12.2,16
2020/2/27 6:34,3.8,16,3.8,16,13.1,16
2020/2/27 6:35,4,16,4,16,4.7,2
2020/2/27 6:36,4.1,16,4.1,16,6.5,2
2020/2/27 6:37,4.3,1,4.3,1,8.4,1
2020/2/27 6:38,4,1,4.3,1,5.8,1
2020/2/27 6:39,3.7,16,4,1,4.8,16
2020/2/27 6:40,3.6,1,3.7,1,5.6,1
2020/2/27 6:41,3.6,16,3.6,1,8.6,1
2020/2/27 6:42,3.7,16,3.7,1,8.3,16
2020/2/27 6:43,4.1,16,4.1,1,11.8,15
2020/2/27 6:44,4.1,16,4.1,1,12.8,15
2020/2/27 6:45,4.1,16,4.1,1,5.6,15
2020/2/27 6:46,4,15,4.1,1,6.9,14
2020/2/27 6:47,3.8,15,4,1,7.9,15
2020/2/27 6:48,3.8,15,3.8,16,5,16
2020/2/27 6:49,3.9,15,3.9,16,6.7,16
2020/2/27 6:50,4.1,15,4.2,15,9.5,14
2020/2/27 6:51,4.2,15,4.2,15,9.4,15
2020/2/27 6:52,4.2,15,4.3,15,7.2,16
2020/2/27 6:53,4,15,4.3,15,8.4,12
2020/2/27 6:54,4,15,4,15,13,15
2020/2/27 6:55,4.5,15,4.5,15,10,14
2020/2/27 6:56,4.7,15,4.7,15,8.9,14
2020/2/27 6:57,4.7,15,4.8,15,10.7,16
2020/2/27 6:58,5,15,5,15,12.6,16
2020/2/27 6:59,5.3,15,5.3,15,12.6,16
2020/2/27 7:00,5.4,15,5.4,15,8.7,1
2020/2/27 7:01,5.6,15,5.6,15,14.5,15
2020/2/27 7:02,5.8,15,5.8,15,11.5,16
2020/2/27 7:03,6.4,15,6.4,15,14.8,16
2020/2/27 7:04,6.4,15,6.7,15,11.5,13
2020/2/27 7:05,6,15,6.4,15,5.5,16
2020/2/27 7:06,5.8,15,6,15,5.7,15
2020/2/27 7:07,5.5,16,5.8,15,4.3,1
2020/2/27 7:08,5.2,16,5.6,15,2.9,16
2020/2/27 7:09,4.7,16,5,15,5.6,15
2020/2/27 7:10,4.8,16,4.8,15,8.5,16
2020/2/27 7:11,4.3,16,4.8,15,9.5,15
2020/2/27 7:12,4,16,4.2,15,4.2,2
2020/2/27 7:13,3.4,16,4,15,5,2
2020/2/27 7:14,3,16,3.4,15,5.1,15
2020/2/27 7:15,3.1,16,3.1,15,6.5,16
2020/2/27 7:16,3.4,16,3.4,15,8.7,16
2020/2/27 7:17,3.8,16,3.8,16,8.7,16
2020/2/27 7:18,4.1,16,4.1,16,8.4,16
2020/2/27 7:19,4.2,16,4.3,16,7.1,1
2020/2/27 7:20,3.8,16,4.2,16,2.2,15
2020/2/27 7:21,3.5,16,3.7,16,2.5,15
2020/2/27 7:22,3.5,16,3.5,16,9.1,15
2020/2/27 7:23,3.7,16,3.7,16,9.9,16
2020/2/27 7:24,3.9,16,3.9,16,9,16
2020/2/27 7:25,3.9,16,4,16,8.2,15
2020/2/27 7:26,3.7,16,3.8,16,8.1,15
2020/2/27 7:27,3.6,16,3.6,16,7.2,15
2020/2/27 7:28,3.5,16,3.6,16,8.9,15
2020/2/27 7:29,3.5,15,3.5,16,7,15
2020/2/27 7:30,3.8,15,3.8,16,6.9,15
2020/2/27 7:31,4.1,16,4.1,16,7.1,2
2020/2/27 7:32,4.2,16,4.3,16,8.3,14
2020/2/27 7:33,4.1,16,4.2,16,5.8,16
2020/2/27 7:34,3.9,16,4.1,16,5.7,1
2020/2/27 7:35,3.8,16,3.9,16,6.1,2
2020/2/27 7:36,3.7,16,3.8,16,5.8,12
2020/2/27 7:37,3.8,15,3.8,16,10.9,14
2020/2/27 7:38,4.4,15,4.4,15,12.3,15
2020/2/27 7:39,4.5,15,4.5,15,8.2,16
2020/2/27 7:40,4.6,15,4.6,15,8.6,14
2020/2/27 7:41,4.8,15,4.8,15,9.1,1
2020/2/27 7:42,4.9,15,4.9,15,9,16
2020/2/27 7:43,5,15,5,15,7.9,1
2020/2/27 7:44,5.3,15,5.3,15,9.1,15
2020/2/27 7:45,5.7,15,5.7,15,11.6,15
2020/2/27 7:46,6.5,15,6.5,15,16.1,15
2020/2/27 7:47,6.5,16,6.6,15,11.3,16
2020/2/27 7:48,6.1,16,6.4,15,9.8,16
2020/2/27 7:49,6.3,16,6.3,15,11.4,15
2020/2/27 7:50,6.2,16,6.4,15,9.8,15
2020/2/27 7:51,6.1,16,6.2,15,7.6,15
2020/2/27 7:52,6,16,6.1,15,8.5,14
2020/2/27 7:53,5.8,16,6,15,9.1,15
2020/2/27 7:54,5.8,16,5.9,15,9.4,15
2020/2/27 7:55,5.7,16,5.8,15,8.6,16
2020/2/27 7:56,5.4,16,5.7,15,12.5,16
2020/2/27 7:57,5.4,16,5.5,16,10.5,15
2020/2/27 7:58,5.7,16,5.7,16,11.4,16
2020/2/27 7:59,5.6,16,5.7,16,9,16
2020/2/27 8:00,5.7,16,5.7,16,8.2,15
2020/2/27 8:01,5.7,16,5.8,16,8.2,16
2020/2/27 8:02,5.6,16,5.7,16,7.2,16
2020/2/27 8:03,5.7,16,5.8,16,6.9,15
2020/2/27 8:04,5.4,16,5.6,16,4.7,16
2020/2/27 8:05,5.3,16,5.4,16,8.3,16
2020/2/27 8:06,4.8,16,5.2,16,5.7,15
2020/2/27 8:07,4.6,16,4.7,16,7.7,16
2020/2/27 8:08,4.1,16,4.5,16,5.2,14
2020/2/27 8:09,3.7,16,4,16,4.9,16
2020/2/27 8:10,3.4,16,3.7,16,4.4,1
2020/2/27 8:11,3.4,16,3.4,16,8.9,16
2020/2/27 8:12,3.6,16,3.6,16,10.5,16
2020/2/27 8:13,3.7,16,3.7,16,7.9,15
2020/2/27 8:14,4,15,4,16,7.7,12
2020/2/27 8:15,3.8,15,4,16,6.8,11
2020/2/27 8:16,3.7,15,3.8,16,5,1
2020/2/27 8:17,3.7,15,3.8,16,6.2,1
2020/2/27 8:18,3.7,15,3.7,16,6.8,16
2020/2/27 8:19,4.1,15,4.1,15,10.1,16
2020/2/27 8:20,4.5,15,4.5,15,9.4,16
2020/2/27 8:21,4.3,16,4.5,15,6.3,16
2020/2/27 8:22,4.1,16,4.3,15,6.8,1
2020/2/27 8:23,3.8,16,4.1,15,3.1,15
2020/2/27 8:24,3.5,16,3.7,15,3.6,15
2020/2/27 8:25,3.4,16,3.5,15,4.7,16
2020/2/27 8:26,3.6,16,3.6,15,7.4,15
2020/2/27 8:27,3.7,16,3.7,15,7.7,15
2020/2/27 8:28,3.9,16,4,15,7.5,16
2020/2/27 8:29,3.6,16,3.9,15,5.8,1
2020/2/27 8:30,3.4,16,3.5,15,6,14
2020/2/27 8:31,3.3,16,3.3,16,4.3,16
2020/2/27 8:32,3.2,16,3.3,16,9.4,16
2020/2/27 8:33,3.5,16,3.5,16,8.9,16
2020/2/27 8:34,3.7,16,3.7,16,5.8,15
2020/2/27 8:35,3.7,16,3.8,16,5.4,16
2020/2/27 8:36,3.4,16,3.7,16,1.8,15
2020/2/27 8:37,3.2,16,3.3,16,5.6,16
2020/2/27 8:38,3.1,16,3.2,16,5.4,2
2020/2/27 8:39,3.1,16,3.1,16,5.5,16
2020/2/27 8:40,3.3,16,3.3,16,8.9,15
2020/2/27 8:41,3.4,16,3.4,16,5.6,16
2020/2/27 8:42,3.5,16,3.5,16,7.9,15
2020/2/27 8:43,3.2,16,3.5,16,4.3,16
2020/2/27 8:44,3.2,16,3.2,16,7,16
2020/2/27 8:45,3.5,16,3.5,16,9.7,16
2020/2/27 8:46,4,16,4,16,8.2,2
2020/2/27 8:47,4.2,16,4.2,16,6.3,1
2020/2/27 8:48,4.4,16,4.4,16,8.5,16
2020/2/27 8:49,4.4,16,4.4,16,5.8,1
2020/2/27 8:50,4.3,16,4.5,16,7.6,16
2020/2/27 8:51,4.8,16,4.8,16,12.3,1
2020/2/27 8:52,5,16,5,16,9.7,15
2020/2/27 8:53,5.3,16,5.3,16,10.8,15
2020/2/27 8:54,5.3,16,5.4,16,6.9,16
2020/2/27 8:55,5,16,5.3,16,5.4,15
2020/2/27 8:56,4.7,16,5,16,6,15
2020/2/27 8:57,4.6,16,4.7,16,6.2,16
2020/2/27 8:58,4.6,15,4.6,16,8.5,16
2020/2/27 8:59,4.6,15,4.7,16,7,14
2020/2/27 9:00,4.6,15,4.6,16,7.8,15
2020/2/27 9:01,4,15,4.6,16,5.1,15
2020/2/27 9:02,3.5,16,4,16,3.1,16
2020/2/27 9:03,3.3,16,3.5,16,6.5,15
2020/2/27 9:04,3.4,15,3.4,16,7.1,14
2020/2/27 9:05,3.4,15,3.4,16,6.2,15
2020/2/27 9:06,3.5,16,3.6,16,6,15
2020/2/27 9:07,3.4,16,3.6,15,6.5,15
2020/2/27 9:08,3.2,15,3.4,15,5.4,16
2020/2/27 9:09,3,15,3.1,15,5.8,16
2020/2/27 9:10,2.9,15,3,15,5,15
2020/2/27 9:11,3,15,3,15,5.1,2
2020/2/27 9:12,3.2,15,3.2,16,7.8,16
2020/2/27 9:13,3,15,3.2,16,3.6,14
2020/2/27 9:14,2.8,16,3,16,5.7,16
2020/2/27 9:15,3.1,16,3.1,16,9,16
2020/2/27 9:16,3.2,16,3.2,16,9.5,15
2020/2/27 9:17,3.3,15,3.3,15,6.3,15
2020/2/27 9:18,3.7,15,3.7,15,9.8,13
2020/2/27 9:19,3.9,15,3.9,15,7.8,12
2020/2/27 9:20,3.9,15,3.9,15,5.4,15
2020/2/27 9:21,3.9,15,4,15,5,14
2020/2/27 9:22,3.7,15,3.9,15,4.1,16
2020/2/27 9:23,3.8,15,3.8,15,5.8,15
2020/2/27 9:24,4.1,15,4.1,15,9.3,16
2020/2/27 9:25,3.9,14,4.1,15,6.8,12
2020/2/27 9:26,3.9,14,3.9,15,9.1,15
2020/2/27 9:27,4,15,4.1,15,10,16
2020/2/27 9:28,3.8,15,4,15,7.8,16
2020/2/27 9:29,3.7,15,3.8,15,9.3,16
2020/2/27 9:30,4,15,4,15,8.7,15
2020/2/27 9:31,4.3,15,4.3,15,7.9,14
2020/2/27 9:32,4.5,15,4.5,15,6.8,15
2020/2/27 9:33,4.7,15,4.7,15,8.5,16
2020/2/27 9:34,4.6,15,4.7,15,6,15
2020/2/27 9:35,4.4,15,4.6,15,5.6,12
2020/2/27 9:36,4.1,15,4.4,15,4.3,12
2020/2/27 9:37,3.9,15,4.1,15,5.4,12
2020/2/27 9:38,4,15,4.1,15,9.8,16
2020/2/27 9:39,4.1,15,4.1,15,13.6,15
2020/2/27 9:40,4,15,4.1,15,8.5,16
2020/2/27 9:41,4,15,4,15,8.9,14
2020/2/27 9:42,4.2,15,4.2,15,13.1,15
2020/2/27 9:43,4.2,15,4.3,15,8.6,15
2020/2/27 9:44,4.3,15,4.3,15,7.9,1
2020/2/27 9:45,4.4,15,4.4,15,5.6,16
2020/2/27 9:46,4.6,15,4.6,16,8.5,16
2020/2/27 9:47,4.9,16,4.9,16,8.7,15
2020/2/27 9:48,4.9,15,4.9,16,5.8,15
2020/2/27 9:49,4.6,15,4.9,16,4.1,16
2020/2/27 9:50,4.5,15,4.6,16,8.2,16
2020/2/27 9:51,4.3,16,4.5,16,5.4,1
2020/2/27 9:52,3.7,16,4.2,16,1.6,2
2020/2/27 9:53,3.3,16,3.7,16,4.9,16
2020/2/27 9:54,3.2,15,3.3,16,6.2,16
2020/2/27 9:55,3.1,15,3.2,16,4.4,16
2020/2/27 9:56,2.9,15,3.1,16,5.8,15
2020/2/27 9:57,2.8,15,2.9,16,4.8,11
2020/2/27 9:58,2.7,15,2.8,15,4.7,11
2020/2/27 9:59,2.7,15,2.7,15,4.3,10
2020/2/27 10:00,2.5,14,2.7,15,3.7,12
2020/2/27 10:01,2.7,14,2.7,16,6.4,12
2020/2/27 10:02,2.8,13,2.9,16,5.4,13
2020/2/27 10:03,2.8,13,2.9,15,1.4,6
2020/2/27 10:04,2.6,13,2.8,15,2.9,14
2020/2/27 10:05,2.7,13,2.7,15,6.8,15
2020/2/27 10:06,2.8,13,2.8,15,7.6,15
2020/2/27 10:07,2.6,13,2.8,13,5,13
2020/2/27 10:08,2.5,14,2.5,13,5,16
2020/2/27 10:09,3,14,3,14,13.8,15
2020/2/27 10:10,3.4,14,3.4,14,11.6,12
2020/2/27 10:11,3.3,14,3.4,14,9.2,13
2020/2/27 10:12,3.1,15,3.3,14,2.6,2
2020/2/27 10:13,3.5,14,3.5,14,6.5,14
2020/2/27 10:14,3.5,14,3.6,14,5.4,14
2020/2/27 10:15,3.7,14,3.7,14,9.8,16
2020/2/27 10:16,3.9,14,3.9,14,11.5,16
2020/2/27 10:17,4.1,14,4.1,14,5.7,13
2020/2/27 10:18,4.2,14,4.2,14,5.2,10
2020/2/27 10:19,3.7,14,4.1,14,3.9,16
2020/2/27 10:20,3.5,14,3.6,14,5.7,1
2020/2/27 10:21,3.5,15,3.5,14,7.5,16
2020/2/27 10:22,3.7,14,3.7,14,5.2,14
2020/2/27 10:23,3.9,14,3.9,14,10.2,11
2020/2/27 10:24,4,14,4,14,6.5,12
2020/2/27 10:25,3.7,13,4.1,14,5.5,12
2020/2/27 10:26,3.2,13,3.6,14,2.9,10
2020/2/27 10:27,3,13,3.1,14,3.7,15
2020/2/27 10:28,3.2,14,3.2,14,6.1,13
2020/2/27 10:29,3.3,13,3.3,14,6.4,14
2020/2/27 10:30,3.3,13,3.3,14,7,15
2020/2/27 10:31,3.2,13,3.3,14,5,4
2020/2/27 10:32,3.2,13,3.2,14,6.2,15
2020/2/27 10:33,2.9,14,3.2,14,5.6,12
2020/2/27 10:34,3,14,3,14,6.5,13
2020/2/27 10:35,2.9,14,2.9,13,3.7,15
2020/2/27 10:36,3.2,14,3.2,14,8.2,15
2020/2/27 10:37,3.4,14,3.4,14,5.1,15
2020/2/27 10:38,3.3,14,3.4,14,4.3,13
2020/2/27 10:39,3.4,14,3.4,14,4.5,12
2020/2/27 10:40,3.3,13,3.4,14,6.9,14
2020/2/27 10:41,3.6,13,3.6,13,10,14
2020/2/27 10:42,3.5,13,3.6,13,6,16
2020/2/27 10:43,3.4,13,3.5,13,5.7,1
2020/2/27 10:44,3.2,14,3.4,13,3.9,12
2020/2/27 10:45,3.4,13,3.4,13,5.7,13
2020/2/27 10:46,3.3,13,3.4,13,10.3,16
2020/2/27 10:47,3.6,13,3.6,13,9.7,16
2020/2/27 10:48,3.6,14,3.6,13,5.5,2
2020/2/27 10:49,3.4,14,3.6,13,5.7,16
2020/2/27 10:50,3.3,15,3.4,13,3.8,16
2020/2/27 10:51,3.1,15,3.3,13,6.4,5
2020/2/27 10:52,2.9,15,3,13,3,16
2020/2/27 10:53,2.9,15,2.9,13,6,15
2020/2/27 10:54,3.3,15,3.3,13,7.6,16